sat.trackr.live / text

‹ back to catalog

NANOFF A

NORAD 58810 · 2023-185T

PAYLOAD ACTIVE UNKNOWN

§ Identity

Operator
Country
GER
Launch date
2023-12-01
Launch site
AFWTR
Launch vehicle
Mass (kg)
RCS (m²)

External: N2YO · Heavens-Above · Gunter

§ Orbital elements

Epoch: 2026-09-21T21:47:19.087584Z

Period
95.19 min
Inclination
97.5168°
Eccentricity
0.0009394
Mean motion
15.12810838 rev/d
Perigee alt
521.1 km
Apogee alt
534.1 km
Semi-major
6,905.8 km
B*
1.0378e-4
RAAN
330.9764°
Arg perigee
343.7601°
Mean anomaly
16.3327°
Rev number
14,766

§ Raw data

NANOFF A1 58810U 23185T   26264.90785981  .00001758  00000+0  10378-3 0  99902 58810  97.5168 330.9764 0009394 343.7601  16.3327 15.12810838147664

JSON: /api/v1/satellites/58810 · /tle

For live sub-satellite position, see the globe view (requires WebGL).

§ Visibility from observer

Set your observer location to see the next 7 days of passes ≥ 10°. The values pass through the URL so the page stays shareable.

No JS? Fill the form by hand. The geolocation button needs JavaScript.

§ Radio — SatNOGS DB

ModeDescriptionDownlinkUplink
FMN CW/FM (F2A) Beacon 435.950 MHz
GMSK GMSK4k8 Telemetry 435.950 MHz
FM S-band telemetry 2.264 GHz
UNKNOWN S-band telemetry 2.264 GHz
GMSK GMSK9k6 Telemetry (inactive) 435.950 MHz

5 transmitters · refreshed weekly from db.satnogs.org